STARLINK-35927

Satellite information

Favourite Embed

Satellite Type and Status

PAYLOADIN ORBIT

Key statistics

Satellite STARLINK-35927 at a glance.

Uptime

24

Days in orbit

Revolutions

≈ 15.5

Per day

Orbit

LEO

Low Earth Orbit

Inclination

53.2

Latest

Satellite identification and parameters

Extended collection of information and parameters for STARLINK-35927.

Object identification

Identified? True

Debris? False

Object name: STARLINK-35927

International designator: 2025-271H

Object number (NORAD): 66624

Object ID (CCSDS): 66624

Country: UNITED STATES OF AMERICA (US)

Current information (Y/N): Y

Orbital parameters

Period: 92.944 minutes

Inclination: 53.1593 deg

SMA: 6796.833 km

Apoapsis: 419.298 km

Periapsis: 418.099 km

RAAN: 167.2465 deg

Eccentricy: 0.00008818

Argument of periapsis: 79.3908 deg

Mean anomaly: 280.7201 deg

Mean motion: 15.49326075 rev/day

Mean motion (dot): 0.00047893 rev/day2

B* drag term: 0.00086338744 1/REarth

Two-line elements (TLE)

Creation date: Dec. 17, 2025, 2:25 a.m.

Reference frame: TEME

Reference center: EARTH

Epoch: Dec. 16, 2025, 9:57 p.m. UTC

TLE line 0: 0 STARLINK-35927

TLE line 1: 1 66624U 25271H 25350.91487555 .00047893 00000-0 86339-3 0 9993

TLE line 2: 2 66624 53.1593 167.2465 0000882 79.3908 280.7201 15.49326075 4856

Live tracking on map

Real-time ground track for satellite STARLINK-35927.

In-orbit conjunctions

There are no conjunctions computed for STARLINK-35927, at the moment. Check back to stay up to date, as we update our databases every day.

Go to all conjunctions

Associated space launch

A batch of 28 satellites for the Starlink mega-constellation - SpaceX's project for space-based Internet communication system.

STARLINK-35927 was lifted into orbit during the mission ‘Falcon 9 Block 5 | Starlink Group 11-30’, on board a Falcon 9 space rocket.

The launch took place on Nov. 23, 2025, 8:48 a.m. from Space Launch Complex 4E.

For more information about the launch, click the button.

Launch to space Falcon 9 Block 5 | Starlink Group 11-30
Falcon 9 Block 5 | Starlink Group 11-30

Agency: SpaceX

Status: Launch Successful

Launch date: Nov. 23, 2025, 8:48 a.m. UTC

Rocket: Falcon 9

Launch pad: Space Launch Complex 4E

Location: Vandenberg SFB, CA, USA

...

Latest news about this satellite

News about space launch
Live coverage: SpaceX to launch 28 Starlink satellites from Vandenberg on brand new Falcon 9 rocket

Liftoff from Space Launch Complex 4E at Vandenberg Space Force Base, California, is scheduled for 12:34 a.m. PST (3:34 a.m. EST / 0834 UTC).

News about space launch
Launch Roundup: Innospace to debut new rocket, SpaceX to launch five Falcon 9 missions

Another busy week of launches has arrived, with SpaceX planning to launch five Falcon 9… The post Launch Roundup: Innospace to debut new rocket, SpaceX to launch five Falcon 9 missions appeared first on NASASpaceFlight.com.


Newsletter sign-up

Weekly statistics, charts and insights to help you stay on top of the space industry.